Temp
-6 -6 -6 -6 -6 -6 -6 -6 -7 -7 -8 -8 -9 -10 -10 -11 -11 -11 -12 -11 -11 -11 -11 -12 -12 -12 -12 -13 -13 -13 -12 -13 -13 -13 -13 -12 -12 -12 -12 -11 -11 -10 -10 -9 -9 -8 -8 -7 -6 -6 -6 -6 -6 -5
-6 -6 -6 -6 -6 -6 -6 -7 -7 -8 -9 -10 -11 -11 -12 -12 -12 -12 -12 -12 -12 -12 -12 -12 -12 -12 -13 -13 -13 -12 -13 -12 -13 -14 -13 -13 -13 -13 -12 -12 -11 -11 -11 -11 -11 -9 -7 -8 -7 -7 -7 -6 -5 -6
-5 -6 -6 -6 -6 -7 -7 -8 -9 -10 -10 -11 -12 -13 -13 -13 -12 -12 -13 -13 -13 -12 -12 -12 -12 -13 -13 -13 -14 -13 -12 -12 -13 -13 -14 -13 -13 -13 -13 -12 -11 -11 -11 -11 -11 -8 -8 -7 -7 -7 -7 -6 -6 -6
-5 -6 -6 -6 -7 -7 -8 -8 -9 -10 -11 -12 -13 -13 -14 -14 -13 -13 -14 -14 -13 -13 -12 -11 -12 -12 -13 -13 -13 -12 -12 -13 -13 -13 -14 -14 -13 -13 -12 -12 -12 -11 -12 -10 -9 -8 -8 -8 -8 -8 -7 -7 -7 -6
-6 -7 -8 -7 -7 -8 -8 -9 -10 -11 -13 -14 -14 -14 -13 -14 -14 -14 -14 -14 -14 -14 -13 -12 -11 -12 -12 -12 -12 -12 -13 -13 -13 -14 -14 -13 -13 -13 -12 -12 -10 -10 -10 -10 -10 -9 -9 -7 -7 -7 -7 -7 -7 -7
-8 -8 -8 -8 -8 -7 -8 -9 -10 -13 -13 -13 -14 -14 -14 -14 -14 -14 -14 -14 -14 -14 -14 -12 -11 -11 -11 -12 -12 -13 -13 -13 -13 -13 -13 -13 -13 -13 -12 -11 -10 -10 -11 -11 -10 -8 -8 -8 -7 -7 -7 -7 -7 -7
-7 -7 -8 -9 -9 -8 -10 -11 -12 -13 -13 -13 -13 -14 -13 -14 -14 -14 -14 -14 -14 -15 -15 -14 -12 -11 -12 -12 -12 -13 -13 -13 -13 -13 -13 -12 -12 -13 -12 -11 -9 -10 -9 -8 -8 -8 -8 -8 -7 -7 -7 -7 -6 -6
-7 -8 -8 -9 -9 -9 -10 -11 -12 -12 -13 -13 -13 -14 -14 -14 -14 -14 -14 -15 -14 -15 -15 -14 -13 -12 -12 -12 -12 -13 -13 -12 -12 -12 -12 -12 -12 -12 -12 -8 -9 -10 -9 -9 -8 -8 -8 -8 -8 -8 -8 -8 -8 -7
-7 -8 -8 -9 -9 -10 -11 -11 -12 -12 -12 -12 -13 -14 -14 -14 -14 -15 -15 -14 -14 -15 -15 -15 -14 -13 -13 -13 -13 -12 -12 -12 -11 -11 -11 -12 -12 -11 -9 -10 -9 -9 -9 -9 -8 -8 -9 -9 -8 -8 -8 -8 -8 -8
-8 -8 -9 -9 -10 -10 -10 -11 -11 -12 -12 -13 -13 -13 -14 -14 -14 -14 -14 -14 -14 -14 -14 -12 -13 -12 -13 -12 -12 -12 -12 -12 -11 -11 -11 -11 -10 -10 -10 -9 -9 -9 -9 -9 -8 -8 -8 -8 -9 -9 -8 -8 -8 -8
-9 -9 -10 -10 -10 -10 -11 -11 -12 -12 -12 -13 -13 -13 -13 -14 -14 -14 -14 -13 -13 -13 -13 -12 -12 -12 -11 -11 -11 -11 -11 -11 -10 -10 -10 -10 -9 -9 -9 -9 -9 -9 -9 -9 -9 -9 -9 -9 -9 -9 -9 -8 -8 -8
-10 -10 -10 -10 -10 -11 -11 -11 -12 -12 -13 -13 -13 -13 -13 -14 -14 -14 -13 -13 -13 -12 -12 -11 -11 -11 -10 -10 -11 -10 -10 -10 -10 -10 -9 -9 -10 -9 -9 -9 -9 -9 -9 -9 -9 -9 -9 -9 -9 -8 -9 -8 -8 -8
-10 -10 -10 -10 -11 -11 -11 -12 -12 -12 -12 -12 -13 -13 -13 -13 -13 -13 -12 -12 -12 -12 -11 -11 -11 -11 -10 -10 -10 -10 -10 -10 -10 -10 -9 -10 -10 -9 -9 -9 -9 -9 -9 -9 -9 -9 -9 -9 -9 -8 -8 -8 -8 -8
-11 -11 -11 -11 -11 -11 -12 -12 -12 -12 -12 -12 -12 -12 -12 -11 -11 -12 -12 -12 -12 -11 -11 -11 -11 -11 -10 -10 -10 -10 -10 -10 -9 -9 -9 -10 -10 -9 -9 -9 -9 -9 -9 -9 -9 -9 -9 -9 -9 -9 -9 -8 -8 -9
-10 -11 -11 -11 -11 -11 -12 -12 -12 -12 -12 -12 -12 -11 -11 -11 -11 -11 -11 -11 -11 -11 -11 -11 -10 -10 -10 -11 -10 -10 -10 -10 -10 -10 -10 -10 -10 -9 -9 -9 -9 -9 -10 -10 -9 -9 -9 -9 -9 -9 -9 -9 -9 -9
-11 -11 -11 -12 -12 -12 -12 -12 -12 -12 -12 -12 -11 -11 -11 -11 -11 -11 -11 -11 -11 -11 -11 -11 -11 -11 -10 -10 -10 -10 -10 -10 -10 -10 -10 -10 -10 -10 -10 -9 -10 -10 -10 -10 -10 -10 -10 -10 -9 -9 -9 -9 -9 -9
-11 -11 -11 -12 -12 -12 -12 -12 -12 -11 -11 -11 -11 -11 -11 -11 -11 -11 -11 -11 -11 -11 -11 -11 -11 -10 -10 -10 -10 -10 -10 -11 -11 -11 -11 -11 -11 -11 -10 -10 -11 -11 -11 -10 -10 -10 -10 -10 -10 -10 -10 -10 -9 -10
-11 -11 -11 -12 -12 -12 -12 -12 -11 -11 -11 -11 -11 -11 -11 -11 -11 -12 -11 -11 -11 -11 -11 -12 -12 -11 -11 -11 -10 -10 -11 -11 -11 -12 -12 -12 -12 -12 -12 -12 -11 -11 -11 -11 -10 -10 -10 -10 -10 -10 -10 -10 -10 -10
-11 -11 -11 -11 -11 -12 -12 -12 -12 -12 -11 -11 -11 -12 -11 -11 -12 -12 -12 -12 -12 -12 -12 -12 -12 -12 -11 -11 -12 -11 -12 -12 -12 -12 -12 -12 -12 -12 -12 -12 -12 -12 -12 -12 -11 -11 -11 -11 -10 -10 -10 -10 -10 -10
-11 -11 -11 -11 -12 -12 -12 -12 -12 -13 -12 -12 -11 -12 -12 -12 -12 -12 -12 -12 -12 -12 -12 -13 -12 -12 -13 -12 -13 -13 -13 -12 -12 -13 -13 -13 -13 -13 -13 -13 -13 -13 -13 -13 -13 -13 -12 -12 -12 -11 -11 -11 -10 -10
-11 -11 -11 -12 -12 -12 -13 -13 -13 -13 -13 -12 -12 -12 -12 -12 -12 -12 -12 -13 -13 -13 -12 -12 -12 -12 -12 -13 -13 -13 -13 -13 -13 -13 -13 -13 -14 -14 -14 -14 -14 -14 -14 -14 -14 -14 -14 -13 -13 -12 -12 -12 -11 -11
-11 -11 -12 -12 -12 -13 -13 -12 -12 -12 -13 -12 -12 -13 -13 -14 -14 -13 -13 -13 -14 -13 -13 -13 -13 -13 -13 -13 -13 -14 -13 -14 -14 -14 -14 -14 -14 -15 -14 -14 -14 -14 -14 -14 -14 -14 -14 -14 -14 -13 -13 -13 -12 -12
-11 -11 -11 -12 -12 -12 -12 -12 -12 -13 -13 -13 -14 -14 -14 -14 -14 -14 -14 -14 -13 -14 -14 -14 -14 -14 -14 -13 -14 -14 -14 -15 -15 -15 -15 -15 -15 -15 -15 -15 -15 -14 -15 -15 -15 -15 -14 -14 -14 -14 -14 -14 -13 -13
-11 -11 -12 -12 -12 -12 -12 -12 -12 -13 -13 -14 -14 -14 -14 -14 -14 -14 -14 -14 -14 -14 -14 -14 -15 -15 -15 -16 -16 -16 -16 -16 -16 -16 -16 -16 -15 -15 -15 -15 -15 -16 -16 -16 -16 -16 -16 -15 -15 -15 -14 -14 -14 -14
-11 -11 -11 -12 -12 -11 -12 -12 -13 -14 -14 -14 -15 -14 -15 -15 -15 -15 -15 -14 -15 -15 -15 -16 -16 -16 -16 -16 -17 -17 -17 -17 -17 -17 -17 -18 -17 -17 -17 -17 -17 -18 -17 -17 -17 -17 -17 -17 -17 -17 -16 -15 -15 -15
-10 -11 -11 -11 -11 -12 -12 -13 -13 -14 -14 -15 -15 -15 -15 -15 -16 -15 -15 -15 -15 -16 -17 -17 -17 -17 -17 -18 -18 -19 -19 -19 -19 -19 -19 -19 -19 -19 -18 -18 -18 -18 -18 -19 -18 -18 -18 -18 -18 -18 -18 -17 -16 -16
-10 -10 -10 -11 -12 -12 -13 -13 -13 -14 -15 -15 -15 -15 -16 -16 -16 -16 -16 -16 -17 -17 -18 -18 -18 -18 -19 -19 -19 -20 -20 -20 -20 -20 -20 -20 -20 -20 -20 -19 -19 -19 -19 -19 -19 -19 -18 -18 -18 -18 -18 -17 -17 -16
-10 -10 -10 -11 -12 -12 -13 -13 -14 -14 -15 -16 -16 -16 -16 -16 -17 -16 -17 -18 -18 -18 -19 -19 -19 -19 -20 -20 -20 -20 -20 -20 -20 -20 -20 -20 -20 -20 -20 -20 -20 -20 -19 -20 -20 -19 -19 -19 -18 -18 -18 -17 -17 -17
-10 -11 -11 -12 -12 -13 -13 -13 -14 -15 -15 -16 -17 -17 -17 -18 -18 -19 -19 -19 -19 -19 -19 -19 -20 -20 -20 -21 -21 -21 -21 -21 -20 -20 -20 -20 -19 -20 -20 -20 -20 -20 -20 -20 -20 -20 -20 -20 -19 -18 -18 -18 -17 -17
-11 -11 -12 -12 -12 -13 -13 -14 -15 -15 -16 -17 -17 -17 -18 -18 -19 -19 -20 -20 -20 -20 -20 -21 -20 -20 -20 -20 -20 -20 -21 -21 -21 -21 -21 -21 -21 -20 -20 -20 -20 -20 -20 -20 -20 -20 -20 -20 -19 -19 -18 -18 -17 -17
-11 -11 -12 -12 -13 -13 -14 -14 -15 -15 -16 -16 -16 -17 -18 -19 -19 -19 -20 -20 -21 -21 -21 -21 -21 -21 -21 -20 -20 -20 -20 -21 -21 -22 -22 -22 -22 -22 -22 -22 -21 -21 -21 -21 -21 -20 -20 -20 -19 -19 -18 -18 -18 -17
-11 -11 -12 -12 -13 -14 -15 -15 -15 -16 -17 -17 -18 -19 -19 -19 -20 -20 -21 -21 -21 -21 -21 -21 -21 -21 -21 -21 -21 -21 -21 -21 -22 -22 -22 -22 -22 -22 -22 -22 -21 -21 -21 -21 -21 -21 -20 -20 -19 -19 -18 -18 -18 -18
-11 -12 -13 -13 -14 -14 -15 -16 -16 -17 -18 -18 -19 -19 -20 -20 -21 -21 -21 -22 -22 -21 -21 -21 -22 -22 -22 -22 -21 -21 -22 -22 -23 -23 -23 -23 -23 -22 -22 -22 -22 -21 -21 -21 -21 -21 -20 -20 -19 -19 -19 -19 -18 -18
Height
2970 2971 2972 2974 2974 2975 2975 2976 2975 2975 2974 2976 2977 2978 2980 2980 2984 2983 2985 2986 2989 2989 2990 2990 2990 2991 2991 2991 2989 2988 2987 2985 2985 2985 2984 2982 2979 2977 2973 2968 2965 2962 2957 2951 2946 2938 2932 2928 2926 2925 2923 2923 2925 2925
2969 2970 2970 2969 2970 2969 2968 2967 2968 2968 2966 2969 2970 2972 2975 2976 2980 2980 2982 2983 2984 2985 2985 2985 2986 2986 2985 2984 2984 2982 2982 2981 2981 2982 2983 2980 2976 2973 2971 2963 2961 2961 2960 2955 2953 2938 2932 2927 2924 2923 2923 2924 2924 2924
2966 2967 2965 2963 2962 2961 2958 2958 2958 2958 2959 2960 2963 2967 2970 2972 2975 2978 2979 2980 2981 2980 2979 2978 2980 2980 2980 2979 2979 2976 2976 2977 2976 2978 2976 2974 2972 2969 2965 2960 2957 2954 2952 2946 2942 2931 2927 2923 2923 2921 2926 2926 2925 2923
2962 2961 2958 2955 2954 2951 2948 2947 2946 2947 2949 2953 2958 2962 2965 2969 2971 2973 2975 2976 2977 2976 2972 2973 2974 2974 2975 2973 2972 2971 2971 2969 2970 2971 2970 2969 2967 2964 2957 2957 2954 2952 2947 2940 2935 2929 2927 2926 2924 2924 2925 2924 2922 2921
2957 2954 2952 2950 2946 2942 2939 2935 2934 2936 2940 2946 2953 2957 2961 2965 2968 2970 2972 2974 2974 2976 2969 2966 2967 2967 2967 2965 2964 2963 2963 2962 2962 2962 2962 2962 2961 2960 2954 2950 2941 2944 2940 2938 2930 2929 2928 2926 2924 2923 2922 2921 2919 2917
2956 2954 2952 2947 2943 2937 2931 2926 2923 2926 2934 2943 2949 2955 2959 2963 2965 2968 2971 2973 2972 2971 2968 2962 2962 2961 2961 2960 2959 2958 2955 2954 2954 2954 2953 2954 2955 2958 2950 2941 2938 2936 2936 2933 2927 2927 2926 2925 2922 2920 2917 2916 2915 2912
2959 2955 2950 2947 2943 2937 2931 2927 2925 2928 2934 2943 2950 2955 2958 2962 2965 2969 2971 2971 2970 2969 2967 2962 2958 2958 2958 2955 2953 2952 2950 2948 2947 2947 2945 2947 2950 2952 2945 2938 2934 2935 2930 2927 2927 2924 2922 2919 2914 2912 2910 2908 2904 2902
2961 2957 2953 2949 2945 2942 2938 2935 2934 2936 2941 2946 2952 2955 2959 2962 2965 2967 2969 2968 2967 2967 2966 2961 2955 2952 2952 2949 2948 2947 2945 2941 2940 2941 2940 2941 2944 2944 2936 2931 2931 2928 2928 2926 2925 2923 2918 2914 2910 2907 2905 2901 2898 2898
2965 2961 2958 2956 2954 2950 2947 2945 2945 2947 2949 2952 2954 2957 2961 2964 2966 2966 2965 2965 2965 2967 2961 2958 2954 2950 2947 2945 2942 2940 2938 2937 2937 2935 2936 2940 2937 2934 2930 2929 2928 2927 2926 2924 2922 2919 2915 2911 2907 2904 2901 2899 2896 2895
2969 2966 2963 2962 2961 2959 2958 2957 2955 2954 2954 2957 2960 2962 2963 2964 2964 2966 2965 2964 2962 2960 2956 2951 2950 2946 2946 2941 2938 2936 2933 2933 2932 2931 2932 2931 2927 2928 2928 2925 2923 2923 2923 2920 2919 2917 2914 2910 2906 2902 2898 2896 2894 2893
2974 2972 2970 2969 2968 2966 2965 2963 2962 2962 2963 2963 2963 2963 2964 2964 2965 2964 2963 2962 2960 2958 2953 2950 2948 2943 2941 2939 2937 2936 2933 2931 2929 2928 2929 2927 2926 2925 2926 2925 2923 2922 2921 2919 2916 2913 2909 2906 2903 2900 2897 2894 2891 2890
2976 2975 2973 2972 2970 2969 2968 2967 2967 2966 2966 2966 2965 2965 2964 2964 2964 2964 2961 2960 2958 2955 2952 2949 2947 2943 2940 2939 2937 2936 2933 2933 2931 2930 2929 2927 2928 2926 2925 2923 2921 2920 2918 2916 2914 2911 2908 2905 2902 2898 2896 2893 2891 2888
2977 2976 2975 2974 2973 2972 2971 2970 2969 2969 2967 2966 2965 2964 2964 2964 2962 2961 2959 2958 2956 2954 2951 2949 2947 2944 2941 2940 2938 2936 2934 2933 2932 2930 2929 2928 2928 2926 2924 2922 2919 2917 2914 2912 2910 2908 2905 2902 2899 2896 2894 2891 2889 2887
2977 2976 2975 2975 2974 2973 2972 2971 2970 2968 2967 2965 2964 2963 2962 2961 2960 2959 2958 2956 2955 2952 2950 2948 2946 2944 2942 2939 2937 2935 2933 2931 2930 2929 2929 2928 2927 2925 2922 2919 2917 2915 2912 2909 2907 2906 2903 2901 2898 2895 2892 2889 2887 2885
2977 2976 2975 2974 2973 2972 2971 2970 2969 2968 2967 2965 2963 2961 2960 2960 2959 2957 2955 2953 2951 2949 2947 2945 2943 2942 2940 2938 2936 2934 2932 2930 2929 2928 2928 2926 2925 2922 2920 2917 2915 2913 2910 2908 2905 2903 2901 2899 2896 2893 2890 2888 2885 2883
2976 2975 2974 2972 2972 2970 2969 2968 2967 2965 2963 2962 2960 2959 2959 2958 2957 2954 2952 2950 2948 2947 2945 2943 2942 2939 2937 2935 2934 2931 2930 2928 2928 2927 2925 2924 2921 2919 2917 2915 2912 2910 2907 2905 2903 2900 2898 2896 2893 2891 2888 2886 2883 2881
2974 2973 2972 2970 2969 2968 2967 2966 2964 2962 2960 2959 2958 2957 2956 2954 2953 2951 2949 2947 2946 2945 2943 2942 2940 2938 2936 2933 2931 2930 2926 2925 2924 2923 2921 2920 2918 2916 2913 2911 2909 2906 2904 2902 2899 2897 2894 2892 2889 2887 2884 2882 2880 2879
2971 2970 2969 2968 2966 2965 2963 2962 2960 2958 2956 2956 2955 2954 2952 2951 2949 2948 2946 2944 2942 2940 2939 2939 2937 2935 2934 2931 2929 2927 2925 2924 2921 2918 2917 2915 2914 2911 2909 2907 2905 2902 2900 2897 2894 2891 2889 2887 2885 2882 2880 2878 2876 2875
2968 2967 2965 2964 2963 2962 2960 2958 2957 2954 2952 2951 2951 2950 2948 2947 2946 2944 2942 2940 2938 2937 2935 2933 2932 2928 2928 2926 2925 2922 2919 2918 2917 2914 2911 2909 2907 2905 2903 2901 2898 2896 2893 2890 2888 2885 2883 2880 2878 2876 2874 2873 2871 2870
2965 2964 2963 2961 2960 2958 2957 2955 2953 2951 2948 2948 2946 2945 2944 2943 2941 2940 2938 2937 2935 2932 2930 2928 2926 2924 2923 2921 2919 2916 2914 2912 2911 2909 2906 2904 2902 2899 2896 2894 2892 2889 2887 2885 2882 2879 2877 2874 2872 2869 2867 2866 2865 2864
2961 2960 2959 2958 2956 2955 2954 2951 2949 2947 2945 2944 2943 2941 2939 2938 2936 2935 2933 2931 2930 2927 2924 2922 2919 2918 2916 2914 2911 2909 2906 2905 2904 2902 2900 2898 2896 2894 2892 2889 2887 2885 2881 2878 2875 2873 2870 2867 2865 2862 2860 2859 2857 2857
2958 2956 2955 2953 2952 2950 2948 2947 2946 2945 2942 2940 2938 2936 2934 2931 2930 2929 2927 2925 2922 2919 2917 2914 2913 2911 2908 2906 2904 2901 2900 2898 2896 2894 2892 2890 2888 2887 2885 2882 2879 2877 2875 2871 2868 2865 2863 2861 2858 2856 2854 2852 2850 2849
2954 2952 2951 2950 2948 2946 2946 2943 2942 2941 2939 2936 2933 2930 2928 2926 2924 2922 2920 2917 2916 2914 2913 2910 2907 2905 2902 2900 2899 2897 2894 2892 2890 2887 2885 2884 2881 2878 2875 2873 2869 2865 2862 2861 2857 2855 2853 2852 2850 2848 2847 2845 2843 2842
2949 2948 2946 2945 2944 2943 2942 2941 2939 2937 2934 2931 2928 2924 2922 2920 2919 2917 2914 2912 2911 2909 2908 2906 2904 2901 2898 2895 2892 2889 2887 2884 2882 2879 2876 2874 2872 2870 2865 2862 2859 2854 2850 2848 2845 2843 2841 2839 2838 2837 2837 2836 2835 2834
2948 2946 2944 2941 2941 2939 2938 2936 2934 2931 2928 2925 2922 2919 2918 2917 2915 2911 2908 2905 2904 2903 2902 2900 2897 2895 2892 2889 2886 2883 2879 2876 2873 2870 2867 2863 2860 2857 2854 2852 2849 2844 2841 2838 2837 2834 2833 2830 2827 2826 2825 2825 2825 2825
2943 2941 2940 2937 2936 2935 2933 2930 2928 2925 2922 2919 2917 2915 2914 2912 2910 2905 2901 2900 2899 2898 2896 2894 2891 2888 2883 2880 2877 2875 2872 2869 2866 2863 2859 2855 2850 2846 2843 2840 2838 2836 2832 2828 2825 2824 2822 2821 2819 2817 2816 2816 2816 2816
2938 2936 2934 2934 2932 2931 2928 2925 2922 2920 2917 2914 2912 2911 2910 2907 2902 2899 2898 2897 2895 2892 2890 2886 2883 2879 2877 2874 2871 2867 2864 2861 2858 2855 2851 2847 2843 2838 2833 2830 2826 2824 2821 2818 2816 2813 2812 2810 2809 2808 2807 2807 2807 2807
2932 2930 2930 2929 2926 2924 2921 2918 2916 2914 2911 2910 2908 2906 2904 2901 2897 2895 2893 2890 2888 2885 2882 2880 2877 2874 2871 2868 2865 2861 2858 2854 2851 2847 2843 2840 2836 2833 2828 2823 2818 2814 2810 2807 2805 2803 2801 2800 2799 2798 2798 2798 2799 2800
2927 2926 2925 2923 2921 2918 2915 2913 2911 2908 2907 2904 2901 2898 2895 2891 2889 2887 2885 2883 2880 2878 2875 2873 2870 2867 2864 2861 2857 2853 2849 2844 2839 2834 2830 2826 2824 2822 2816 2811 2807 2804 2801 2799 2797 2794 2792 2791 2790 2790 2790 2790 2791 2792
2922 2921 2919 2916 2914 2912 2910 2907 2904 2902 2899 2897 2892 2888 2885 2882 2880 2878 2876 2874 2873 2871 2869 2867 2864 2861 2858 2854 2850 2845 2839 2833 2827 2820 2814 2811 2808 2805 2801 2798 2795 2793 2792 2790 2788 2787 2785 2783 2782 2782 2782 2782 2783 2785
2916 2915 2912 2910 2908 2906 2904 2901 2898 2894 2891 2887 2885 2882 2879 2877 2874 2872 2870 2868 2867 2866 2864 2862 2859 2854 2850 2845 2840 2835 2830 2824 2817 2811 2806 2801 2798 2795 2792 2789 2787 2786 2784 2783 2781 2779 2777 2776 2775 2775 2776 2777 2778 2779
2911 2909 2907 2904 2903 2901 2898 2895 2892 2888 2884 2880 2878 2877 2874 2872 2870 2868 2866 2865 2863 2862 2860 2857 2852 2847 2842 2837 2832 2827 2820 2815 2809 2804 2800 2796 2793 2790 2787 2784 2782 2780 2779 2778 2776 2774 2772 2771 2771 2771 2772 2773 2774 2775
2905 2903 2901 2899 2897 2894 2892 2889 2885 2881 2877 2873 2871 2870 2868 2867 2865 2863 2862 2861 2859 2857 2854 2850 2845 2841 2836 2830 2825 2819 2813 2808 2803 2798 2794 2791 2788 2785 2782 2779 2778 2776 2775 2774 2772 2771 2770 2769 2769 2769 2770 2771 2772 2773
Wind_Speed
10 10 10 12 13 14 16 19 22 23 24 25 23 23 22 21 21 19 20 19 19 22 21 21 22 19 14 16 19 21 23 14 9 9 9 10 16 13 11 26 20 14 14 11 14 7 5 15 8 10 6 5 4 9
3 4 7 10 13 17 21 24 26 28 28 28 27 25 23 21 21 19 18 18 20 22 21 21 21 23 24 23 23 24 21 20 15 16 15 15 20 25 23 22 20 9 20 19 20 22 24 22 11 7 7 5 4 8
3 8 11 15 20 24 26 28 30 30 31 30 27 24 21 20 19 18 17 19 19 22 23 23 4 4 11 18 19 24 25 20 21 15 15 20 19 20 22 25 26 28 28 31 32 18 25 9 19 6 1 6 10 11
8 9 11 13 16 19 21 24 28 28 28 25 21 21 21 20 19 19 16 16 16 20 25 22 7 11 13 18 22 22 22 23 23 22 22 26 28 21 29 30 35 33 33 27 26 19 26 12 10 9 8 10 14 17
16 14 12 15 17 19 23 27 27 24 22 20 19 16 17 20 18 17 14 12 15 16 25 28 16 12 9 15 19 17 17 20 24 26 25 27 27 28 33 33 35 24 20 20 28 25 19 13 11 10 13 18 21 19
17 12 12 13 15 18 18 16 16 16 18 18 19 15 13 18 18 15 8 9 11 15 19 24 14 10 8 11 9 15 18 21 23 25 28 28 26 22 19 28 26 19 30 32 34 13 15 20 21 21 26 26 26 26
32 28 21 18 19 21 16 13 13 14 20 20 19 16 9 21 15 12 9 8 9 8 16 19 20 3 11 13 10 9 15 16 18 20 26 26 25 25 32 38 17 23 20 18 15 23 27 29 32 27 25 24 28 28
31 34 33 28 24 25 26 24 21 21 21 18 16 9 12 16 14 8 7 11 12 14 18 12 18 20 18 8 8 15 20 16 20 21 21 21 20 22 28 17 22 21 22 17 16 19 23 20 19 16 14 17 14 9
28 30 32 32 29 26 25 23 21 17 15 12 9 10 12 11 7 5 11 12 13 16 15 19 26 29 11 18 22 22 14 7 15 21 22 16 19 18 15 13 26 22 20 16 16 16 17 18 14 16 15 14 14 12
23 24 26 27 26 25 24 24 25 25 23 19 15 11 7 5 5 7 10 14 18 19 23 18 12 20 15 21 21 14 6 4 7 11 10 22 29 23 20 17 16 16 10 13 16 17 17 17 18 16 15 12 12 13
17 19 20 21 21 20 20 20 19 17 14 11 8 5 4 3 3 4 4 4 4 6 8 12 19 25 24 20 18 6 6 2 4 3 7 5 1 5 4 3 6 7 10 14 17 21 22 22 21 19 16 13 13 14
12 13 14 16 17 17 17 16 14 11 8 5 3 2 1 2 3 3 5 5 5 5 13 20 22 19 14 11 5 5 5 3 3 10 3 2 5 8 9 9 10 10 12 15 18 20 19 19 18 16 15 12 11 10
7 9 9 9 9 10 10 10 9 8 8 6 3 3 1 1 2 4 2 3 7 15 21 23 19 16 7 6 6 3 3 2 7 2 1 3 3 8 11 11 11 14 16 16 17 18 18 18 17 16 15 14 13 10
4 5 6 6 7 8 8 8 10 11 11 8 4 3 2 2 2 5 7 11 14 14 14 16 15 9 10 8 5 4 5 5 2 2 2 3 5 10 13 15 15 15 15 14 15 15 16 17 18 17 16 15 14 13
4 5 5 5 6 7 8 9 9 10 11 8 6 3 2 5 9 13 13 15 15 14 14 16 15 8 8 6 4 5 3 2 2 1 6 8 10 12 16 17 16 15 14 14 14 15 16 17 17 18 18 16 14 11
7 7 7 7 7 8 9 10 11 14 14 7 5 5 5 11 12 15 16 16 14 14 14 13 7 6 5 4 4 4 3 4 3 4 11 13 14 15 16 17 17 17 16 17 19 20 21 21 20 20 20 18 15 14
11 11 11 11 10 11 13 13 14 14 6 5 6 9 11 12 11 12 12 12 13 14 13 8 4 5 6 6 5 5 4 4 7 14 16 18 18 17 17 18 18 19 20 21 21 21 22 22 23 21 19 20 19 16
12 12 13 14 14 15 16 16 15 12 12 9 9 7 11 11 10 11 13 14 15 13 12 10 11 14 10 12 15 17 20 16 18 17 16 17 16 17 18 19 21 23 24 25 26 25 25 24 22 22 22 19 18 17
12 11 13 14 15 16 17 19 14 13 17 12 8 10 12 11 9 14 11 11 13 14 15 13 9 12 13 16 15 18 20 24 21 17 21 24 25 22 22 23 25 26 27 28 28 26 25 25 26 24 22 21 19 17
10 10 11 14 15 14 12 10 16 13 12 15 14 12 12 14 14 10 10 13 16 19 18 16 19 17 19 20 22 26 27 25 20 22 18 17 17 19 21 21 22 23 23 24 25 24 24 24 24 25 24 22 21 18
11 12 13 14 15 14 13 12 13 11 14 14 12 16 15 14 15 15 13 14 16 19 25 25 24 17 19 24 23 24 24 24 23 21 20 17 16 17 19 20 23 24 25 25 26 25 24 25 24 23 23 22 21 21
12 13 14 16 17 18 14 11 10 12 16 16 15 16 18 18 16 12 15 21 21 20 19 19 21 24 23 22 22 20 19 17 17 20 21 20 19 21 23 26 28 31 33 33 33 31 29 28 26 25 24 22 22 22
13 14 14 16 11 6 5 6 10 12 14 18 19 22 20 17 17 11 13 13 15 16 17 15 14 11 10 16 19 21 21 19 20 22 23 26 27 28 31 33 36 38 38 35 35 35 35 34 33 31 26 24 23 22
12 13 11 5 5 5 9 9 13 17 22 18 20 19 18 13 9 10 15 20 21 20 20 19 18 16 15 16 19 21 23 26 28 31 31 31 31 31 32 33 35 35 34 33 33 32 31 32 32 31 29 27 24 23
12 7 5 7 6 7 11 15 18 19 22 22 22 15 8 10 13 16 20 22 20 20 20 20 22 24 27 32 37 36 33 31 27 25 26 27 28 28 29 29 30 32 34 33 31 29 27 25 26 27 27 27 26 24
7 6 6 5 7 9 13 16 18 27 25 21 11 9 11 15 17 11 15 18 19 17 17 24 35 38 34 28 23 22 21 20 20 20 21 23 26 27 28 29 28 28 30 31 31 30 28 25 23 23 24 24 25 25
9 9 11 10 13 16 20 25 23 19 16 10 12 13 13 8 10 13 13 15 23 28 33 31 30 26 22 24 25 24 24 24 23 24 26 29 31 34 36 36 36 34 31 30 30 29 28 28 25 23 23 20 20 21
12 12 13 14 17 20 25 24 19 13 10 12 14 13 9 9 19 30 32 28 28 30 27 26 25 23 25 27 28 29 30 31 32 33 34 34 35 35 37 37 36 36 36 35 32 29 28 27 25 23 21 22 20 18
16 15 17 19 21 23 22 18 16 18 19 21 25 30 31 31 29 27 28 29 30 30 29 27 23 23 27 29 30 32 36 38 40 42 43 43 42 39 39 37 34 31 29 29 26 27 28 28 25 23 21 20 19 17
16 16 19 21 21 20 17 15 18 21 24 28 32 34 35 36 35 32 30 30 30 28 25 23 24 25 27 30 33 35 37 38 39 40 41 38 35 32 30 28 25 22 22 21 20 19 21 24 24 23 21 18 15 14
18 19 20 20 18 16 17 19 19 21 24 24 24 23 21 23 27 29 29 27 24 21 21 22 25 29 28 30 31 32 34 36 35 31 29 27 26 25 23 20 19 18 18 16 17 18 17 16 17 17 15 13 11 13
17 18 18 18 16 18 20 20 20 20 20 21 21 22 23 22 20 21 19 19 20 20 21 24 27 28 29 31 34 36 37 37 34 30 25 23 21 20 19 18 16 15 14 13 15 15 13 11 9 8 7 7 9 12
17 16 16 18 19 19 20 21 21 17 17 21 22 20 20 18 17 19 18 19 20 22 24 25 25 27 31 34 37 37 37 36 33 29 26 24 24 23 20 16 15 13 11 12 12 11 9 6 4 4 6 9 10 9
Wind_Direction
202 219 230 240 245 249 251 252 252 254 255 253 247 242 239 235 232 228 234 238 248 257 264 270 269 279 285 291 291 289 298 302 321 296 303 292 290 310 314 307 313 313 316 333 327 275 271 319 339 266 263 97 2 350
171 222 240 246 252 252 253 255 256 256 252 247 244 240 235 233 234 231 236 245 253 263 269 275 279 285 281 280 277 277 278 286 290 276 271 287 287 292 302 295 301 307 315 300 294 279 295 332 295 13 62 17 343 340
295 279 274 270 265 264 264 263 260 256 252 247 241 238 237 236 236 236 236 249 258 269 279 285 265 266 278 282 274 274 278 291 285 285 288 272 271 285 289 287 298 308 304 300 301 315 332 48 42 135 65 310 311 317
332 318 311 297 289 285 280 274 267 261 254 246 237 234 230 228 234 238 243 248 259 274 279 293 284 275 271 270 264 268 272 276 276 269 267 269 274 279 279 287 293 301 305 310 309 322 343 34 17 7 326 315 316 314
3 354 337 330 319 306 292 280 268 256 238 231 206 206 223 215 222 236 245 254 259 268 286 301 300 272 317 273 265 252 277 281 267 257 257 261 266 275 284 290 288 309 309 315 305 319 323 341 345 342 305 296 305 290
31 22 4 351 347 347 338 312 269 230 200 209 194 193 215 212 216 224 241 251 276 286 295 302 302 305 238 296 264 255 272 269 260 252 250 258 263 269 274 282 303 315 320 296 293 333 322 315 312 307 299 285 281 277
56 48 37 29 26 28 31 42 88 134 158 176 173 193 212 214 216 215 230 255 285 283 272 295 306 291 299 295 273 296 333 274 259 254 250 250 251 260 269 272 302 307 305 338 330 324 320 313 307 298 297 294 290 274
57 52 52 50 49 55 64 71 90 116 134 148 154 160 199 193 201 216 257 264 266 276 286 282 287 310 328 316 304 302 297 296 248 250 257 257 265 262 269 293 310 308 318 331 333 324 320 328 327 316 314 316 293 257
60 58 54 58 65 69 72 73 79 92 112 130 130 148 163 174 185 206 241 264 275 273 274 271 286 306 319 297 302 302 306 257 248 251 252 252 253 237 266 280 289 297 312 322 348 334 328 312 330 327 309 303 310 293
62 62 63 61 62 68 75 84 93 98 99 107 118 128 142 173 215 246 264 267 267 277 275 292 301 288 293 299 302 317 289 242 243 272 252 245 258 272 282 296 302 302 294 327 325 332 341 346 338 319 324 298 295 292
63 66 70 73 72 72 71 71 75 81 90 102 108 123 157 184 235 258 256 262 274 267 274 320 331 328 330 317 312 312 315 272 271 247 201 220 276 57 352 318 290 304 304 315 326 327 329 336 341 337 329 330 316 298
64 64 70 71 69 67 66 65 64 64 58 54 37 7 195 248 254 239 258 263 266 284 317 342 344 338 335 327 324 336 337 312 321 348 292 81 21 5 348 324 311 300 297 306 318 321 324 326 327 330 316 326 335 337
43 50 58 62 63 59 51 42 37 31 19 6 10 17 276 191 269 247 257 331 315 321 335 346 342 338 319 333 306 296 263 257 314 277 278 123 13 355 353 346 317 316 310 308 315 319 322 327 328 331 332 313 306 315
35 27 24 21 18 13 10 6 359 354 348 344 329 305 265 264 336 322 329 315 320 313 319 326 328 310 296 302 281 274 278 309 314 332 67 26 355 350 354 349 342 332 325 323 323 324 326 326 327 327 328 327 321 301
349 345 341 341 339 336 335 336 334 334 333 323 296 250 235 326 335 322 317 317 318 317 314 316 318 306 285 266 264 281 266 262 256 82 11 3 347 341 340 335 334 329 326 318 316 318 324 327 326 324 324 322 324 313
324 320 317 313 320 322 322 323 323 323 319 292 255 267 308 311 317 317 313 310 304 317 323 321 307 285 271 262 262 258 251 225 192 342 343 337 330 330 326 323 321 316 315 313 309 307 308 308 313 317 318 314 309 306
309 307 309 307 300 310 312 313 315 316 294 281 315 310 295 297 298 310 311 313 309 301 305 307 269 259 302 265 264 254 253 230 295 324 330 327 325 318 314 315 316 312 313 316 313 311 309 308 308 311 307 307 300 293
307 305 306 304 301 297 301 305 309 302 300 320 305 297 308 306 303 310 305 314 312 306 291 274 267 266 263 265 271 283 291 298 311 315 317 322 317 312 306 306 305 303 307 308 307 308 306 305 302 303 304 302 301 286
310 303 300 301 299 297 300 305 307 299 310 313 317 311 303 297 304 307 308 321 306 302 307 296 269 263 274 287 284 292 308 313 312 305 316 320 319 314 308 303 302 302 303 304 305 305 303 303 299 296 294 294 293 294
309 306 302 308 307 300 299 285 301 301 307 313 320 318 313 311 311 313 305 303 300 300 299 290 295 296 295 294 284 284 288 292 291 301 311 308 304 302 301 301 303 305 306 306 306 307 306 302 298 297 294 290 287 286
301 302 301 304 304 294 285 286 283 290 296 304 314 313 306 309 305 303 296 294 301 304 277 285 282 280 291 293 291 285 280 283 297 304 306 302 307 314 315 313 311 309 307 307 306 308 308 304 303 299 294 292 283 280
299 300 303 305 303 293 286 271 279 294 295 309 308 303 304 309 310 289 282 291 289 268 261 270 293 280 285 269 246 250 267 273 288 287 285 286 294 299 302 303 305 305 301 297 296 297 300 304 306 299 295 293 289 279
297 299 299 305 285 268 278 289 301 309 309 307 301 293 297 296 298 294 278 268 269 271 291 286 273 246 227 236 243 252 252 256 263 267 275 283 287 290 295 298 301 303 301 294 291 289 289 290 290 292 298 292 289 285
316 302 296 266 248 260 282 289 302 308 309 303 303 305 307 314 305 284 273 270 272 271 269 267 257 261 269 280 285 288 291 300 304 304 304 301 297 295 294 296 297 299 300 297 295 294 292 289 282 278 280 284 283 282
312 298 257 253 258 275 290 297 308 309 312 315 312 313 288 295 298 291 273 270 269 272 273 275 283 292 302 306 311 315 314 312 309 303 300 298 298 297 295 295 294 295 295 294 291 290 292 296 290 282 276 272 275 275
295 255 242 252 272 285 297 303 310 313 307 304 292 282 284 288 288 259 266 272 273 279 290 303 312 317 318 316 315 310 306 304 304 306 310 314 316 315 312 310 304 296 294 293 292 289 286 287 290 287 278 274 270 272
266 262 260 270 280 289 295 305 307 298 293 283 276 287 285 268 262 260 282 300 302 308 310 313 318 317 317 317 316 312 309 309 310 312 315 317 318 317 317 316 315 311 305 299 294 292 291 286 284 286 277 271 272 271
263 265 280 289 291 299 302 304 296 289 279 274 275 266 258 256 275 287 295 298 302 306 304 305 314 316 316 314 312 310 309 309 307 305 303 303 302 301 300 301 301 301 302 302 299 296 292 290 286 287 285 268 264 264
275 282 286 291 295 299 299 295 286 283 281 277 279 285 287 288 292 293 295 293 300 302 298 299 306 314 314 312 310 307 305 303 301 300 299 299 298 297 294 293 292 291 290 291 290 288 286 286 286 283 285 279 260 257
280 284 289 295 297 296 298 290 289 288 285 286 286 286 287 289 292 294 297 298 298 298 300 304 310 313 311 311 312 310 309 308 307 305 303 303 304 304 300 299 295 290 290 289 290 286 281 280 278 278 281 276 253 252
289 293 294 297 298 297 297 298 297 295 292 289 287 285 290 291 292 293 292 295 298 298 305 314 311 311 316 322 326 329 328 326 324 319 314 311 311 311 310 309 306 300 296 295 299 301 294 282 274 272 270 257 250 248
292 292 293 295 298 302 303 305 307 301 292 287 280 278 288 290 285 286 284 288 298 310 312 313 318 324 327 332 334 334 332 329 330 327 322 319 321 321 319 315 309 302 300 302 308 309 305 297 284 264 249 242 228 238
293 295 295 297 305 309 310 312 313 305 293 287 283 283 279 281 273 275 284 295 308 316 322 325 329 336 340 339 337 334 331 330 332 328 322 318 321 322 320 318 316 309 303 312 314 312 311 304 283 240 220 223 236 247